Location: Kellogg
(38.0159°N, 90.0546°W)
Time: 19:29:11
(UTC+00:00)

Tiros 1 despin weight - Pass Details

Date: 19 September 2024
Orbit: 572 x 614 km, 48.2° (Epoch: 08 October)

Event Time Altitude Azimuth Distance (km) Brightness Sun altitude
Exits shadow 09:09:11 25° 11° (N) 1,254 ? -30.4°
Drops below altitude 10° 09:12:00 10° 45° (NE) 1,987 ? -29.9°
Sets 09:14:35 0° 57° (ENE) 2,896 ? -29.4°
